Torna al catalogo

CZ-4C R/B

AttivoLEO
NORAD 36123·ROCKET BODY·🇨🇳 China

Lanciato Dec 15, 2009 da Taiyuan Satellite Launch Center

Loading…

Prossimi Passaggi (prossime 24 ore)

TLE

AggiornatoSource: Space-Track

Epoca: Sep 14, 2026, 14:07 UTC

1 36123U 09072C   26257.58865255 -.00000065  00000-0 -27202-4 0  9999
2 36123 100.4966 291.4467 0157465  90.8774  72.2839 13.46242019822936

Traccia CZ-4C R/B in tempo reale con AllMySat

Download on the App Store